Weather History for PAMR - October, 2012

Change the Weather History Date:

Tuesday, October 9, 2012

  Actual Average Record
Temperature  
Mean Temperature 48 °F -  
Max Temperature 50 °F 42 °F 66 °F (2006)
Min Temperature 46 °F 29 °F 21 °F (2007)
Degree Days  
Heating Degree Days 17    
Moisture  
Dew Point 46 °F    
Average Humidity 95    
Maximum Humidity 100    
Minimum Humidity 80    
Precipitation  
Precipitation 0.07 in - - ()
Sea Level Pressure  
Sea Level Pressure 30.14 in    
Wind  
Wind Speed 2 mph (NNW)    
Max Wind Speed 7 mph    
Max Gust Speed -    
Visibility 5 miles    
Events      
Averages and records for this station are not official NWS values.
T = Trace of Precipitation, MM = Missing Value Source: NWS Daily Summary

Daily Weather History Graph

Daily Weather History Graph

Search for Another Location

Airport or City:

Trip Planner

Search our weather history database for the weather conditions in past years. The results will help you decide how hot, cold, wet, or windy it might be!

Date:

Astronomy

Oct. 09, 2012 Rise Set
Actual Time 8:28 AM AKDT 7:03 PM AKDT
Civil Twilight 7:44 AM AKDT 7:46 PM AKDT
Nautical Twilight 6:54 AM AKDT 8:36 PM AKDT
Astronomical Twilight 6:02 AM AKDT 9:28 PM AKDT
Moon 12:37 AM AKDT (10/9) 5:01 PM AKDT (10/9)
Length of Visible Light 12h 02m
Length of Day
10h 35m
Waning Crescent, 35% of the Moon is Illuminated
Oct 9
Waning Crescent
Oct 15
New
Oct 21
First Quarter
Oct 29
Full
Nov 6
Last Quarter

Hourly Weather History & Observations

Time (AKDT) Temp. Windchill Dew Point Humidity Pressure Visibility Wind Dir Wind Speed Gust Speed Precip Events Conditions
12:11 AM 46.4 °F - 46.4 °F 100% 30.17 in 3.0 mi Calm Calm - 0.00 in   Light Drizzle
12:53 AM 46.9 °F - 46.9 °F 100% 30.18 in 5.0 mi Calm Calm - 0.00 in   Overcast
1:33 AM 46.4 °F - 46.4 °F 100% 30.17 in 10.0 mi Calm Calm - 0.00 in   Light Drizzle
1:53 AM 48.0 °F - 46.9 °F 96% 30.17 in 10.0 mi Calm Calm - 0.00 in   Light Drizzle
2:53 AM 48.0 °F - 46.9 °F 96% 30.17 in 10.0 mi Calm Calm - 0.00 in   Overcast
3:30 AM 46.4 °F - 46.4 °F 100% 30.16 in 0.8 mi Calm Calm - 0.00 in   Light Drizzle
3:49 AM 46.4 °F 45.2 °F 46.4 °F 100% 30.16 in 1.0 mi WNW 3.5 mph - 0.00 in   Overcast
3:53 AM 46.9 °F - 46.9 °F 100% 30.16 in 1.0 mi Calm Calm - 0.00 in   Overcast
4:03 AM 46.4 °F - 46.4 °F 100% 30.16 in 1.0 mi Calm Calm - N/A   Overcast
4:50 AM 46.4 °F - 46.4 °F 100% 30.16 in 0.8 mi Calm Calm - 0.01 in   Overcast
4:53 AM 46.9 °F - 46.9 °F 100% 30.16 in 0.8 mi Calm Calm - 0.01 in   Overcast
5:19 AM 46.4 °F - 46.4 °F 100% 30.15 in 0.8 mi Calm Calm - 0.00 in   Light Drizzle
5:44 AM 46.4 °F - 46.4 °F 100% 30.15 in 0.8 mi Calm Calm - 0.01 in   Light Drizzle
5:53 AM 46.9 °F - 46.9 °F 100% 30.15 in 0.8 mi Calm Calm - 0.01 in   Light Drizzle
6:26 AM 46.4 °F 45.2 °F 46.4 °F 100% 30.14 in 0.8 mi NNW 3.5 mph - 0.01 in   Light Drizzle
6:44 AM 46.4 °F 45.2 °F 46.4 °F 100% 30.14 in 0.8 mi North 3.5 mph - 0.01 in   Light Drizzle
6:53 AM 46.9 °F - 46.0 °F 97% 30.15 in 0.8 mi Calm Calm - 0.01 in   Light Drizzle
7:53 AM 46.0 °F 43.9 °F 46.0 °F 100% 30.14 in 0.8 mi North 4.6 mph - 0.01 in   Light Drizzle
8:00 AM 46.4 °F 44.3 °F 46.4 °F 100% 30.14 in 1.0 mi NNW 4.6 mph - 0.00 in   Light Drizzle
8:53 AM 46.0 °F 43.9 °F 46.0 °F 100% 30.15 in 1.0 mi NNW 4.6 mph - 0.01 in   Light Drizzle
9:01 AM 46.4 °F 45.2 °F 46.4 °F 100% 30.14 in 0.8 mi NNW 3.5 mph - 0.01 in   Light Drizzle
9:53 AM 46.0 °F 43.9 °F 46.0 °F 100% 30.15 in 1.0 mi North 4.6 mph - 0.01 in   Light Drizzle
10:53 AM 46.9 °F - 46.0 °F 97% 30.16 in 1.0 mi Variable 4.6 mph - 0.01 in   Light Drizzle
11:53 AM 46.9 °F - 46.0 °F 97% 30.16 in 1.0 mi North 5.8 mph - 0.00 in   Light Drizzle
12:00 PM 48.2 °F - 46.4 °F 93% 30.15 in 7.0 mi North 4.6 mph - 0.00 in   Light Drizzle
12:53 PM 48.0 °F - 46.0 °F 93% 30.15 in 4.0 mi North 4.6 mph - 0.00 in   Light Drizzle
1:53 PM 48.9 °F - 46.9 °F 93% 30.14 in 3.0 mi NNW 4.6 mph - 0.00 in   Overcast
2:11 PM 48.2 °F - 46.4 °F 93% 30.14 in 10.0 mi NNW 6.9 mph - 0.00 in   Mostly Cloudy
2:53 PM 50.0 °F - 45.0 °F 83% 30.14 in 10.0 mi NNW 4.6 mph - 0.00 in   Mostly Cloudy
3:53 PM 50.0 °F - 45.0 °F 83% 30.13 in 7.0 mi NNW 6.9 mph - N/A   Overcast
4:53 PM 50.0 °F - 46.0 °F 86% 30.12 in 10.0 mi North 4.6 mph - N/A   Overcast
5:53 PM 50.0 °F - 45.0 °F 83% 30.11 in 10.0 mi NNE 6.9 mph - N/A   Overcast
6:53 PM 50.0 °F - 44.1 °F 80% 30.11 in 10.0 mi NW 3.5 mph - N/A   Overcast
7:53 PM 50.0 °F - 44.1 °F 80% 30.10 in 10.0 mi North 3.5 mph - N/A   Overcast
8:53 PM 48.9 °F - 44.1 °F 83% 30.10 in 10.0 mi Calm Calm - N/A   Overcast
9:53 PM 48.0 °F - 45.0 °F 89% 30.10 in 10.0 mi Calm Calm - N/A   Overcast
10:53 PM 46.9 °F - 45.0 °F 93% 30.10 in 10.0 mi West 4.6 mph - N/A   Overcast
11:34 PM 46.4 °F - 44.6 °F 93% 30.10 in 10.0 mi Calm Calm - N/A   Overcast
11:53 PM 46.9 °F - 44.1 °F 90% 30.10 in 10.0 mi Calm Calm - N/A   Overcast